Погода в Итанце

Россия / Республика Бурятия     52°09′24″N   107°29′53″E
темп.,
°C
ветер,
м/с
пор.,
м/с
влажн.,
%
обл.,
%
осадки,
мм/ч
давл.,
гПа
погр.,
м
29 июля, чт
чт2923:00+15ссв22775 0.0 100315
02:00+14ссв11824 0.0 100311
05:00+13св11880 0.0 100310
08:00+19вюв11640 0.0 1002267
11:00+25юв12450 0.0 10011237
14:00+28ююв113688 0.0 9992519
17:00+23з235764 0.0 1001404
20:00+15з4896100 2.0 1005398
30 июля, пт
пт3023:00+12зюз3798100 0.5 1007493
02:00+11зюз2598100 0.6 1008400
05:00+11зюз2598100 0.4 1009474
08:00+11зюз2498100 3.1 1010368
11:00+11зюз2498100 1.7 1011367
14:00+13зюз2491100 2.4 1011532
17:00+14зюз228492 0.0 1011444
20:00+13зюз239072 0.0 1011240
31 июля, сб
сб3123:00+11з119853 0.0 101242
02:00+10зсз119841 0.0 101314
05:00+9ссз119814 0.0 101412
08:00+14ю118330 0.0 1014281
11:00+21ю225753 0.0 1013856
14:00+25юз334648 0.0 10111593
17:00+25зюз224424 0.0 10111315
20:00+18юз01755 0.0 101211
1 августа, вс
вс123:00+14с1189100 0.0 101311
02:00+13ссз1192100 0.0 101310
05:00+13ссв1192100 0.0 101310
08:00+17в117494 0.0 1012119
11:00+24ююв1245100 0.0 1011688
14:00+27ю3535100 0.0 10082145
17:00+27ююз3536100 0.0 10072111
20:00+21св1159100 0.0 100811
2 августа, пн
пн223:00+17ссв226999 0.0 100915
02:00+16ссв117588 0.0 100911
05:00+16зсз1173100 0.0 100912
08:00+18юз1170100 0.0 1009129
11:00+22ююз2254100 0.0 1009553
14:00+25юз3446100 0.0 1008991
17:00+22юз2256100 0.0 1009533
20:00+16юз2386100 0.1 1011130